[[{"header":{"parameterUnit":"m.s-1","parameterCategory":1,"la1":30.2991,"la2":30.254,"lo1":-89.0895,"lo2":-89.0444,"dy":0.0017,"dx":0.0017,"nx":28,"ny":28,"refTime":"2024-02-26T09:00:00:Z","depth":0,"parameterNumber":2,"parameterNumberName":"U-component_of_WINDS"},"data":[0,0,0,0,0,0,0,0,0,0,0,0,0,0,0,0,0,0,0,0,0,0,0,0,0,0,0,0,0,0,0,0,0,0,0,0,0,0,0,0,0,0,0,0,0,0,0,0,0,0,0,0,0,0,0,0,0,0,-3.126,-3.1261,0,-3.1373,-3.1374,-3.1375,-3.1383,-3.1382,-3.1381,-3.1379,-3.1492,-3.1496,-3.15,0,0,0,0,0,0,0,0,0,0,0,0,0,-3.1049,-3.1053,-3.126,-3.1261,-3.1263,-3.1373,-3.1374,-3.1376,-3.1383,-3.1382,-3.138,-3.1379,-3.149,-3.1495,-3.15,0,0,0,0,0,0,0,0,0,0,0,0,0,-3.1149,-3.1054,-3.126,-3.128,-3.1283,-3.1372,-3.1374,-3.1376,-3.1384,-3.1382,-3.138,-3.1378,-3.1489,-3.1495,-3.1501,-3.1577,0,0,-3.152,-3.1523,0,0,0,0,0,0,0,0,-3.1143,-3.1157,-3.1276,-3.1279,-3.1282,-3.1362,-3.1341,-3.1443,-3.1384,-3.1345,-3.1379,-3.1377,-3.145,-3.1459,-3.1484,-3.1582,-3.1587,-3.152,-3.1524,-3.1527,-3.1529,0,0,0,0,0,0,0,-3.1136,-3.1152,-3.1305,-3.1277,-3.1281,-3.1283,-3.1295,-3.136,-3.1407,-3.1349,-3.1349,-3.1363,-3.1451,-3.1478,-3.1487,-3.1588,-3.152,-3.1526,-3.153,-3.1532,-3.1754,-3.1756,0,0,0,0,0,0,-3.1126,-3.1146,-3.1301,-3.1308,-3.1207,-3.1288,-3.1302,-3.1338,-3.1406,-3.1414,-3.1364,-3.1363,-3.1469,-3.148,-3.1491,-3.1584,-3.1527,-3.1533,-3.1536,-3.1752,-3.1755,-3.1757,0,0,0,0,0,0,-3.1122,-3.114,-3.1296,-3.1227,-3.1247,-3.1294,-3.1335,-3.1341,-3.1368,-3.1418,-3.1426,-3.1383,-3.1468,-3.1482,-3.1556,-3.1587,-3.1535,-3.1541,-3.1749,-3.1753,-3.1756,-3.177,0,0,0,0,0,0,-3.1115,-3.1138,-3.1168,-3.1228,-3.1251,-3.136,-3.1337,-3.1345,-3.138,-3.1379,-3.1438,-3.1446,-3.1467,-3.1546,-3.1562,-3.1595,-3.1546,-3.1747,-3.1751,-3.1755,-3.1766,-3.1773,-3.1778,0,0,0,0,0,-3.1108,-3.1166,-3.1169,-3.1188,-3.1289,-3.1362,-3.1375,-3.1399,-3.1382,-3.1412,-3.1444,-3.1444,-3.1582,-3.1554,-3.1571,-3.1607,-3.1745,-3.175,-3.1755,-3.1764,-3.1772,-3.1778,0,0,0,0,0,0,-3.1107,-3.1175,-3.1178,-3.1258,-3.1304,-3.1363,-3.1401,-3.1406,-3.1457,-3.1454,-3.1481,-3.1494,-3.1566,-3.1595,-3.1562,-3.1684,-3.1662,-3.167,-3.1663,-3.1671,-3.1676,-3.1667,-3.1551,0,0,0,0,0,-3.1117,-3.117,-3.1226,-3.1291,-3.1315,-3.1354,-3.1386,-3.1401,-3.1449,-3.1468,-3.1506,-3.1552,-3.1605,-3.164,-3.1692,-3.1772,-3.1784,-3.1805,-3.1811,-3.1816,-3.1822,-3.1865,-3.1875,-3.1773,-3.1773,-3.1773,0,0,-3.1136,-3.1179,-3.1211,-3.1292,-3.133,-3.1384,-3.137,-3.1428,-3.1468,-3.1477,-3.1548,-3.1578,-3.1631,-3.1707,-3.1743,-3.1733,-3.1854,-3.1822,-3.1825,-3.1829,-3.1871,-3.1881,-3.189,-3.1776,-3.1776,-3.1775,0,0,-3.1198,-3.1237,-3.1295,-3.1334,-3.1391,-3.1417,-3.1432,-3.149,-3.151,-3.1583,-3.159,-3.1639,-3.1731,-3.1768,-3.1799,-3.1879,-3.188,-3.1895,-3.1925,-3.1967,-3.1975,-3.1983,-3.2009,-3.2019,-3.1902,-3.1902,-3.1902,0,-3.1214,-3.1297,-3.1324,-3.1383,-3.1418,-3.143,-3.1489,-3.1525,-3.1596,-3.1619,-3.1608,-3.1724,-3.1761,-3.1846,-3.1866,-3.1891,-3.1907,-3.1887,-3.1972,-3.198,-3.1987,-3.2013,-3.2023,-3.1903,-3.1903,-3.1903,-3.1903,0,-3.1313,-3.1371,-3.1411,-3.1481,-3.1521,-3.1579,-3.1614,-3.1652,-3.1664,-3.1691,-3.1765,-3.181,-3.1872,-3.1894,-3.1906,-3.1981,-3.1973,-3.1967,-3.1944,-3.1997,-3.2022,-3.2032,-3.1905,-3.1904,-3.1904,-3.1904,0,0,-3.1375,-3.1461,-3.1475,-3.1507,-3.1572,-3.1616,-3.1676,-3.1737,-3.1768,-3.1818,-3.1866,-3.1946,-3.1941,-3.1976,-3.1993,-3.203,-3.2089,-3.202,-3.2021,-3.2029,-3.2173,-3.2176,-3.2187,-3.2092,-3.2094,-3.2096,-3.2168,0,-3.1443,-3.1548,-3.1576,-3.1665,-3.1718,-3.1733,-3.1784,-3.1829,-3.1857,-3.1906,-3.1936,-3.1991,-3.1981,-3.2003,-3.2041,-3.2073,-3.2118,-3.2069,-3.2136,-3.2138,-3.2119,-3.22,-3.2202,-3.2268,-3.2178,-3.218,-3.2181,0,-3.1535,-3.1588,-3.1683,-3.1742,-3.1765,-3.1811,-3.187,-3.1917,-3.1969,-3.1986,-3.2027,-3.2041,-3.2102,-3.2079,-3.2164,-3.213,-3.216,-3.218,-3.2184,-3.2188,-3.2161,-3.2204,-3.229,-3.2299,-3.2197,-3.2195,-3.2194,0,-3.1568,-3.1663,-3.1732,-3.1759,-3.183,-3.1862,-3.1893,-3.1944,-3.1979,-3.2031,-3.2054,-3.2112,-3.2143,-3.2187,-3.2216,-3.2197,-3.2298,-3.2278,-3.2313,-3.2312,-3.2331,-3.2329,-3.242,-3.2355,-3.2354,-3.2354,-3.2354,0,-3.1639,-3.1696,-3.1748,-3.179,-3.1855,-3.1886,-3.1949,-3.198,-3.2025,-3.2073,-3.209,-3.2135,-3.2171,-3.2221,-3.2244,-3.231,-3.2325,-3.234,-3.2345,-3.2337,-3.2335,-3.2354,-3.2349,-3.2357,-3.2356,-3.2356,-3.2355,0,-3.1686,-3.1723,-3.1799,-3.1861,-3.1878,-3.1922,-3.1975,-3.2016,-3.2046,-3.2107,-3.2123,-3.2169,-3.2228,-3.2262,-3.2337,-3.2353,-3.2425,-3.2429,-3.2408,-3.2409,-3.2442,-3.2438,-3.2547,-3.2563,-3.2489,-3.249,-3.249,0,-3.1727,-3.1772,-3.1839,-3.1873,-3.1905,-3.1959,-3.1996,-3.203,-3.2067,-3.2131,-3.2164,-3.2225,-3.2275,-3.237,-3.2409,-3.2466,-3.2471,-3.2505,-3.2479,-3.247,-3.2469,-3.2465,-3.2469,-3.2508,-3.2509,-3.251,-3.251,0,-3.1796,-3.1813,-3.1866,-3.1926,-3.197,-3.2018,-3.2066,-3.2093,-3.2134,-3.2176,-3.2237,-3.2276,-3.2354,-3.2413,-3.2475,-3.2506,-3.2514,-3.2519,-3.253,-3.252,-3.2505,-3.2512,-3.2417,-3.2515,-3.2515,-3.2514,-3.2514,-3.2514,-3.184,-3.188,-3.1934,-3.1993,-3.2033,-3.2078,-3.212,-3.2156,-3.2208,-3.2274,-3.2291,-3.2355,-3.2407,-3.249,-3.2524,-3.2574,-3.2568,-3.2584,-3.2588,-3.2591,-3.2591,-3.25,-3.2586,-3.2586,-3.2585,-3.2585,-3.2585,0,-3.1908,-3.1945,-3.1998,-3.2066,-3.2112,-3.2119,-3.2173,-3.221,-3.2267,-3.2316,-3.2365,-3.2436,-3.2495,-3.254,-3.26,-3.2632,-3.2637,-3.2646,-3.2643,-3.265,-3.2594,-3.2577,-3.2641,-3.2641,-3.2641,-3.2641,-3.2641,-3.2641,-3.1949,-3.2017,-3.2041,-3.2129,-3.2165,-3.2228,-3.2259,-3.23,-3.2339,-3.2417,-3.2467,-3.2497,-3.2544,-3.2608,-3.2662,-3.2674,-3.2694,-3.2702,-3.2714,-3.266,-3.2654,-3.2648,-3.2632,-3.2707,-3.2707,-3.2766,-3.2766,-3.2767]},{"header":{"parameterUnit":"m.s-1","parameterCategory":1,"la1":30.2991,"la2":30.254,"lo1":-89.0895,"lo2":-89.0444,"dy":0.0017,"dx":0.0017,"nx":28,"ny":28,"refTime":"2024-02-26T09:00:00:Z","depth":0,"parameterNumber":3,"parameterNumberName":"V-component_of_WINDS"},"data":[0,0,0,0,0,0,0,0,0,0,0,0,0,0,0,0,0,0,0,0,0,0,0,0,0,0,0,0,0,0,0,0,0,0,0,0,0,0,0,0,0,0,0,0,0,0,0,0,0,0,0,0,0,0,0,0,0,0,3.4418,3.4418,0,3.4459,3.446,3.446,3.4507,3.4507,3.4508,3.4509,3.4545,3.4546,3.4546,0,0,0,0,0,0,0,0,0,0,0,0,0,3.4377,3.4377,3.4418,3.4418,3.4419,3.4459,3.446,3.446,3.4506,3.4507,3.4508,3.4509,3.4545,3.4546,3.4546,0,0,0,0,0,0,0,0,0,0,0,0,0,3.4404,3.4378,3.4418,3.4447,3.445,3.4459,3.446,3.446,3.4506,3.4507,3.4508,3.4509,3.4545,3.4546,3.4546,3.4528,0,0,3.4548,3.4548,0,0,0,0,0,0,0,0,3.4402,3.4405,3.4442,3.4445,3.4448,3.4479,3.4459,3.4483,3.4506,3.4485,3.4509,3.451,3.4522,3.4524,3.453,3.453,3.4531,3.4548,3.4548,3.4548,3.4548,0,0,0,0,0,0,0,3.44,3.4404,3.4434,3.4443,3.4446,3.4457,3.4462,3.4463,3.4497,3.4487,3.449,3.4495,3.4524,3.4529,3.4531,3.4532,3.4548,3.4548,3.4548,3.4548,3.4523,3.4522,0,0,0,0,0,0,3.4395,3.4402,3.4433,3.4435,3.4428,3.4457,3.4463,3.4468,3.4497,3.4502,3.4494,3.4497,3.4528,3.453,3.4532,3.4516,3.4548,3.4549,3.4549,3.4524,3.4523,3.4522,0,0,0,0,0,0,3.4394,3.4397,3.4431,3.442,3.4425,3.4457,3.4462,3.4468,3.4474,3.4502,3.4508,3.4493,3.4529,3.4532,3.453,3.4518,3.4549,3.4549,3.4525,3.4523,3.4522,3.4481,0,0,0,0,0,0,3.4392,3.4396,3.439,3.4419,3.4425,3.4428,3.4461,3.4468,3.4475,3.4479,3.4503,3.4508,3.453,3.4529,3.453,3.4519,3.455,3.4526,3.4524,3.4523,3.4483,3.4478,3.4473,0,0,0,0,0,3.4391,3.4374,3.4389,3.4393,3.4418,3.4428,3.4431,3.4458,3.4474,3.4468,3.4487,3.4508,3.4519,3.4528,3.453,3.4519,3.4527,3.4525,3.4523,3.4485,3.4479,3.4474,0,0,0,0,0,0,3.434,3.4379,3.4395,3.4389,3.4405,3.4435,3.4428,3.4449,3.446,3.4463,3.4494,3.4499,3.4494,3.4506,3.4516,3.4505,3.4526,3.4524,3.4497,3.4491,3.4486,3.4484,3.455,0,0,0,0,0,3.4328,3.4334,3.4367,3.4358,3.4365,3.4396,3.44,3.442,3.4437,3.4444,3.4462,3.4477,3.4485,3.4488,3.4496,3.4485,3.4492,3.4479,3.4474,3.4469,3.4468,3.4466,3.4461,3.4514,3.4514,3.4514,0,0,3.4303,3.4326,3.4326,3.4348,3.4363,3.4368,3.4401,3.4403,3.4408,3.4443,3.4445,3.4459,3.4477,3.4472,3.447,3.4482,3.4455,3.4467,3.4463,3.4464,3.4463,3.4458,3.4453,3.4513,3.4513,3.4513,0,0,3.4262,3.4278,3.4274,3.429,3.4313,3.4334,3.4333,3.4361,3.4373,3.4375,3.4404,3.4408,3.4419,3.4433,3.4441,3.4409,3.4429,3.441,3.4384,3.4382,3.4378,3.4375,3.4365,3.4361,3.4408,3.4408,3.4408,0,3.4227,3.4237,3.4269,3.4272,3.4281,3.4317,3.4314,3.4326,3.435,3.4356,3.4369,3.4387,3.4401,3.4401,3.4394,3.4398,3.4399,3.4407,3.4376,3.4373,3.437,3.4362,3.4358,3.4406,3.4406,3.4406,3.4406,0,3.4196,3.4202,3.4196,3.4222,3.4231,3.423,3.4261,3.4266,3.4286,3.4306,3.4308,3.4328,3.4342,3.4344,3.4361,3.4347,3.4354,3.4371,3.4393,3.4362,3.4355,3.4352,3.4402,3.4403,3.4404,3.4404,0,0,3.412,3.4167,3.4165,3.4179,3.4209,3.4214,3.4216,3.4233,3.4237,3.4253,3.4256,3.4267,3.4285,3.4294,3.4314,3.4312,3.4288,3.433,3.4331,3.4323,3.4276,3.4264,3.426,3.4302,3.4301,3.4301,3.4276,0,3.4085,3.4093,3.4123,3.4122,3.4129,3.4166,3.4168,3.4186,3.4205,3.4214,3.4234,3.4243,3.4264,3.4271,3.427,3.4291,3.4279,3.4293,3.4305,3.4305,3.4301,3.4256,3.4242,3.4217,3.4273,3.4272,3.4272,0,3.4045,3.4062,3.4062,3.4096,3.4101,3.4102,3.4122,3.413,3.4152,3.4166,3.4179,3.4203,3.4207,3.4228,3.4235,3.4244,3.4251,3.4262,3.4262,3.4264,3.4287,3.4258,3.4209,3.4206,3.4267,3.4267,3.4268,0,3.3993,3.4016,3.402,3.4031,3.4069,3.407,3.4086,3.411,3.4119,3.4136,3.4143,3.4159,3.4167,3.4179,3.4207,3.4219,3.4212,3.4234,3.4224,3.4223,3.4221,3.4221,3.4173,3.4223,3.4223,3.4223,3.4223,0,3.3951,3.395,3.3998,3.4001,3.4002,3.4037,3.4036,3.4055,3.4077,3.4084,3.4115,3.412,3.4156,3.4166,3.4187,3.4191,3.4194,3.4206,3.4212,3.4204,3.4203,3.4209,3.4212,3.4222,3.4222,3.4223,3.4223,0,3.3893,3.3925,3.3933,3.3971,3.398,3.3979,3.4012,3.4015,3.4038,3.4046,3.405,3.4085,3.4098,3.4127,3.4147,3.4162,3.4161,3.4171,3.4154,3.4158,3.4148,3.4149,3.4103,3.41,3.415,3.415,3.4149,0,3.3865,3.3866,3.3906,3.3914,3.393,3.3942,3.3953,3.3988,3.3998,3.4026,3.4027,3.4044,3.4059,3.4079,3.4105,3.4121,3.4132,3.4115,3.4135,3.4128,3.4134,3.4135,3.4136,3.4111,3.411,3.411,3.4109,0,3.3813,3.383,3.3845,3.3868,3.3881,3.3899,3.3919,3.3923,3.3963,3.3973,3.3989,3.4001,3.4024,3.4041,3.4062,3.4077,3.41,3.4103,3.4102,3.4095,3.4086,3.4093,3.4144,3.4104,3.4104,3.4105,3.4105,3.4105,3.377,3.3774,3.3804,3.3821,3.3841,3.386,3.3867,3.3892,3.3906,3.393,3.3949,3.3964,3.3989,3.402,3.4035,3.4047,3.4058,3.4055,3.4055,3.4054,3.4052,3.4084,3.405,3.405,3.4051,3.4051,3.4051,0,3.3721,3.3743,3.3759,3.3788,3.3802,3.3825,3.3849,3.3859,3.3873,3.3895,3.3911,3.3931,3.3948,3.3977,3.3996,3.4,3.4012,3.4004,3.4005,3.4009,3.404,3.404,3.3995,3.3995,3.3995,3.3995,3.3995,3.3995,3.3697,3.3707,3.3727,3.3747,3.3768,3.3785,3.3798,3.3816,3.3835,3.3856,3.3872,3.3891,3.3917,3.3939,3.3957,3.3965,3.3971,3.3961,3.3972,3.4001,3.4006,3.4011,3.4011,3.3962,3.3962,3.3941,3.394,3.394]}]]